HC6AC-18 Weather Reports


time (UTC)temp
C
wind
direction
speed
KPH
gust
KPH
rain 1hr
cm
rain 24hr
cm
rain mn
cm
humidity
%
barometer
mb
20260503150216 12 85 1.6 6.4 0.05 0.00 0.00 98 1022.0
20260503140206 17 96 3.2 6.4 0.03 0.00 0.00 98 1022.0
20260503131202 14 107 1.6 6.4 0.00 0.00 0.00 97 1021.0
20260503130202 16 107 3.2 6.4 0.00 0.00 0.00 97 1021.0
20260503120157 16 111 1.6 6.4 0.03 0.00 0.00 99 1020.0
20260503110153 13 105 1.6 6.4 0.00 0.00 0.00 99 1019.0
20260503100148 14 94 1.6 4.8 0.00 0.00 0.00 97 1019.0
20260503090144 11 103 1.6 1.6 0.00 0.00 0.00 97 1018.0
20260503081140 15 108 0.0 1.6 0.00 0.00 0.00 97 1018.0
20260503080140 17 108 0.0 1.6 0.00 0.00 0.00 97 1018.0
20260503072137 11 356 0.0 3.2 0.00 0.00 0.00 96 1019.0
20260503071136 13 356 0.0 3.2 0.00 0.00 0.00 96 1019.0
20260503070135 15 356 0.0 3.2 0.00 0.00 0.00 96 1019.0
20260503060130 13 97 0.0 3.2 0.00 0.00 0.00 97 1020.0
20260503054129 17 97 0.0 3.2 0.00 0.00 0.00 97 1020.0
20260503053128 15 73 0.0 3.2 0.00 0.00 0.00 97 1021.0
20260503052127 15 73 0.0 3.2 0.00 0.00 0.00 97 1021.0
20260503051127 17 73 0.0 3.2 0.00 0.00 0.00 97 1021.0
20260503050126 13 73 0.0 3.2 0.00 0.00 0.00 97 1021.0
20260503045125 15 73 0.0 3.2 0.00 0.00 0.00 97 1021.0
20260503044124 17 73 0.0 3.2 0.00 0.00 0.00 97 1021.0
20260503043124 11 73 0.0 3.2 0.00 0.00 0.00 97 1021.0
20260503042123 13 33 0.0 4.8 0.00 0.00 0.00 97 1022.0
20260503041122 15 33 0.0 4.8 0.00 0.00 0.00 96 1022.0
20260503040121 17 33 0.0 4.8 0.00 0.00 0.00 96 1022.0
20260503035121 13 33 0.0 4.8 0.00 0.00 0.00 96 1022.0
20260503034120 15 33 0.0 4.8 0.00 0.00 0.00 96 1022.0
20260503033119 17 33 0.0 4.8 0.00 0.00 0.00 96 1022.0
20260503032119 15 89 1.6 4.8 0.00 0.00 0.00 96 1021.0
20260503031118 11 89 1.6 4.8 0.00 0.00 0.00 96 1021.0
20260503030117 13 89 1.6 4.8 0.00 0.00 0.00 96 1021.0
20260503025117 16 89 1.6 4.8 0.00 0.00 0.00 96 1021.0
20260503024116 13 89 1.6 4.8 0.00 0.00 0.00 96 1021.0
20260503023115 15 89 1.6 4.8 0.00 0.00 0.00 95 1021.0
20260503022114 17 81 0.0 4.8 0.00 0.00 0.00 95 1020.0
20260503021114 11 81 0.0 4.8 0.00 0.00 0.00 94 1020.0
20260503020112 13 81 0.0 4.8 0.00 0.00 0.00 94 1020.0
20260503015112 15 81 0.0 4.8 0.00 0.00 0.00 94 1020.0
20260503014111 17 81 0.0 4.8 0.00 0.00 0.00 94 1020.0
20260503013110 15 81 0.0 4.8 0.00 0.00 0.00 94 1020.0
20260503012109 11 69 0.0 3.2 0.00 0.00 0.00 94 1020.0
20260503011109 13 69 0.0 3.2 0.00 0.00 0.00 94 1020.0
20260503010108 16 69 0.0 3.2 0.00 0.00 0.00 94 1020.0
20260503005107 13 147 1.6 1.6 0.00 0.00 0.00 94 1020.0
20260503004106 15 147 1.6 1.6 0.00 0.00 0.00 94 1020.0
20260503003106 17 147 1.6 3.2 0.00 0.00 0.00 94 1020.0
20260503002105 12 312 1.6 1.6 0.00 0.00 0.00 95 1019.0
20260503001104 14 312 1.6 1.6 0.00 0.00 0.00 95 1019.0
20260503000104 16 312 1.6 3.2 0.00 0.00 0.00 95 1019.0
20260502235103 12 312 1.6 1.6 0.00 0.00 0.00 96 1019.0
20260502234102 15 312 1.6 1.6 0.00 0.00 0.00 96 1019.0
20260502233101 17 312 1.6 3.2 0.00 0.00 0.00 96 1019.0
20260502232101 13 4 0.0 4.8 0.00 0.00 0.00 95 1018.0
20260502231100 15 4 0.0 4.8 0.00 0.00 0.00 95 1018.0
20260502230100 15 4 0.0 4.8 0.00 0.00 0.00 95 1018.0
20260502225059 11 4 0.0 4.8 0.00 0.00 0.00 95 1018.0
20260502224058 13 4 0.0 4.8 0.00 0.00 0.00 95 1018.0
20260502223057 16 4 0.0 4.8 0.00 0.00 0.00 95 1018.0
20260502222057 13 64 0.0 6.4 0.00 0.00 0.00 97 1017.0
20260502221056 15 64 0.0 6.4 0.00 0.00 0.00 97 1017.0
20260502220055 17 64 0.0 6.4 0.00 0.00 0.00 97 1017.0
20260502215055 13 65 1.6 6.4 0.00 0.00 0.00 98 1017.0
20260502214054 15 65 1.6 6.4 0.00 0.00 0.00 98 1017.0
20260502213053 17 65 1.6 6.4 0.00 0.00 0.00 98 1017.0
20260502212052 17 65 1.6 6.4 0.00 0.00 0.00 98 1017.0
20260502211052 15 65 1.6 6.4 0.00 0.00 0.00 98 1017.0
20260502210051 12 65 1.6 6.4 0.00 0.00 0.00 98 1017.0
20260502205051 13 65 1.6 6.4 0.00 0.00 0.00 98 1017.0
20260502204050 16 65 1.6 6.4 0.00 0.00 0.00 98 1017.0
20260502203049 12 83 1.6 6.4 0.00 0.00 0.00 98 1017.0
20260502202048 14 83 1.6 6.4 0.00 0.00 0.00 98 1018.0
20260502201047 12 83 1.6 6.4 0.00 0.00 0.00 95 1018.0
20260502200047 14 83 1.6 6.4 0.00 0.00 0.00 95 1018.0
20260502195046 16 83 1.6 6.4 0.00 0.00 0.00 95 1018.0